This is the latest recevied weather packets stored in our database for station/object M0HPP-13. If no packets are shown the sender has not sent any weather packets the latest 10 day(s).
| Time | Temp. | Humidity | Pressure | Rain* | Wind** | Luminosity | Snow |
|---|---|---|---|---|---|---|---|
| 1788392286 | 12.22° C | 99% | 1003.6 hPa | 0 mm | - | 0 W/m² | - |
| 1788391686 | 12.22° C | 99% | 1003.6 hPa | 0 mm | - | 0 W/m² | - |
| 1788391086 | 12.22° C | 99% | 1003.6 hPa | 0 mm | - | 0 W/m² | - |
| 1788390486 | 12.22° C | 99% | 1003.9 hPa | 0 mm | - | 0 W/m² | - |
| 1788389886 | 12.22° C | 99% | 1004 hPa | 0 mm | - | 0 W/m² | - |
| 1788389286 | 12.22° C | 99% | 1004.2 hPa | 0 mm | - | 0 W/m² | - |
| 1788388686 | 12.22° C | 99% | 1004.2 hPa | 0 mm | - | 0 W/m² | - |
| 1788388086 | 12.22° C | 99% | 1004.4 hPa | 1.02 mm | - | 0 W/m² | - |
| 1788387486 | 12.22° C | 99% | 1004.6 hPa | 3.3 mm | - | 0 W/m² | - |
| 1788386886 | 12.22° C | 99% | 1004.8 hPa | 3.56 mm | - | 0 W/m² | - |
| 1788386286 | 12.22° C | 99% | 1004.9 hPa | 3.81 mm | - | 0 W/m² | - |
| 1788385686 | 12.22° C | 99% | 1005.2 hPa | 3.81 mm | - | 0 W/m² | - |
| 1788385086 | 12.22° C | 99% | 1005.3 hPa | 3.56 mm | - | 0 W/m² | - |
| 1788384486 | 12.22° C | 99% | 1005.4 hPa | 1.78 mm | - | 0 W/m² | - |
| 1788383886 | 12.22° C | 99% | 1005.7 hPa | 1.02 mm | - | 0 W/m² | - |
| 1788383286 | 12.22° C | 99% | 1005.7 hPa | 0.51 mm | - | 0 W/m² | - |
| 1788382686 | 12.22° C | 98% | 1005.8 hPa | 0.25 mm | - | 0 W/m² | - |
| 1788382086 | 12.22° C | 98% | 1006 hPa | 0.25 mm | - | 0 W/m² | - |
| 1788381486 | 12.78° C | 96% | 1006.3 hPa | 0 mm | - | 0 W/m² | - |
| 1788380886 | 12.78° C | 96% | 1006.5 hPa | 0 mm | - | 0 W/m² | - |
| 1788380286 | 12.78° C | 96% | 1006.6 hPa | 0 mm | - | 0 W/m² | - |
| 1788379686 | 12.78° C | 96% | 1006.7 hPa | 0 mm | - | 0 W/m² | - |
| 1788379086 | 12.78° C | 96% | 1006.8 hPa | 0 mm | - | 0 W/m² | - |
| 1788378486 | 12.22° C | 95% | 1007 hPa | 0 mm | - | 0 W/m² | - |
| 1788377886 | 12.22° C | 95% | 1007.1 hPa | 0 mm | - | 0 W/m² | - |
* Rain latest hour (hover to see other rain measurements)
** Current wind speed in m/s (hover to see current wind gust speed)